2018-112F (43914 NORAD) Tracking and Keplerian Element Data

This shows tracking and keplerian element data for the satellite.

Feedback or suggestion? Click here.




ElementValue
Catalog43914
Name2018-112F
Epoch Orbit247
Epoch Day16.73814465
Epoch Year2019
RAAN117.614
Inclination50.008
Eccentricity0.0006402
Argument of Perigee289.5303
Mean Anonmoly70.4875
Mean Motion13.43708279
Decay Rate-1.29E-06
L11 43914U 18112F 19016.73814465 -.00000129 00000-0 00000+0 0 9991
L22 43914 50.0080 117.6140 0006402 289.5303 70.4875 13.43708279 2476

Live tracking and technical data element details for 2018-112F (NORAD 43914). 2018-112F can be tracked NOW for your location showing map with azimuth and elevation plus other details from your city location.

Track the satellite on the map from your city or location and see movement details for azimuth, elevation, latitude, longitude, range, height, and movement on the map or in text.







IsCatalogInMostPopularTable: catalog: 43914, numindb: 11
Update: records affected: 1



GetName: 43914 2018-112F

Hit Count: updated at: Thu, 17 Jan 2019 14:38:52 GMT